Location: Newark
(36.6294°S, 72.9458°W)
Time: 13:25:12
(UTC+00:00)

LightSail 2 - Pass Details

Date: 27 January 2020
Orbit: 698 x 723 km, 24.0° (Epoch: 25 February)

Event Time Altitude Azimuth Distance (km) Brightness Sun altitude
Exits shadow 07:56:51 16° 25° (NNE) 1,838 7.1 -21.4°
Drops below altitude 10° 07:59:03 10° 49° (NE) 2,207 7.7 -21.1°
Sets 08:02:17 0° 69° (ENE) 3,124 8.8 -20.7°
